,,,PA_Meas_PMT16A,,PR_Meas_QMR101_102,,RH_Meas_QMH101,,SR_Meas_QMS101,,TA_Meas_QMH101,,GenWind,,GenWind,
date,time,status,PA,status,PR,status,RH,status,SR,status,TA,status,DirAvg,status,SpdAvg,
2013-01-29, 00:00:04,VALID,1012.06,VALID,0,VALID,104,VALID,0,VALID,24.2202,VALID,295,VALID,0.0882813,
2013-01-29, 00:01:04,VALID,1012.04,VALID,0,VALID,104,VALID,0,VALID,24.2202,VALID,297,VALID,0.127344,
2013-01-29, 00:02:04,VALID,1012.07,VALID,0,VALID,104,VALID,0,VALID,24.2202,VALID,296,VALID,0.119141,
2013-01-29, 00:03:04,VALID,1012.03,VALID,0,VALID,104,VALID,0,VALID,24.2202,VALID,295,VALID,0.14375,
2013-01-29, 00:04:04,VALID,1012.01,VALID,0,VALID,104,VALID,0,VALID,24.2007,VALID,296,VALID,0.184375,
2013-01-29, 00:05:04,VALID,1012.01,VALID,0,VALID,104,VALID,0,VALID,24.1812,VALID,294,VALID,0.136719,
2013-01-29, 00:06:04,VALID,1012.01,VALID,0,VALID,104,VALID,0,VALID,24.1422,VALID,295,VALID,0.202344,
2013-01-29, 00:07:04,VALID,1011.99,VALID,0,VALID,104,VALID,0,VALID,24.1404,VALID,295,VALID,0.196875,
2013-01-29, 00:08:04,VALID,1011.98,VALID,0,VALID,104,VALID,0,VALID,24.1617,VALID,295,VALID,0.00585938,
2013-01-29, 00:09:04,VALID,1011.98,VALID,0,VALID,104,VALID,0,VALID,24.1812,VALID,295,VALID,0.316016,
2013-01-29, 00:10:04,VALID,1011.99,VALID,0,VALID,104,VALID,0,VALID,24.2007,VALID,295,VALID,0.177344,
2013-01-29, 00:11:04,VALID,1011.97,VALID,0,VALID,104,VALID,0,VALID,24.2202,VALID,294,VALID,0.156641,
2013-01-29, 00:12:04,VALID,1012.01,VALID,0,VALID,104,VALID,0,VALID,24.2202,VALID,296,VALID,0.111719,
2013-01-29, 00:13:04,VALID,1012,VALID,0,VALID,104,VALID,0,VALID,24.1988,VALID,295,VALID,0.0640625,
2013-01-29, 00:14:04,VALID,1012,VALID,0,VALID,104,VALID,0,VALID,24.2396,VALID,295,VALID,0.167187,
2013-01-29, 00:15:04,VALID,1011.98,VALID,0,VALID,104,VALID,0,VALID,24.2202,VALID,296,VALID,0.0851562,
2013-01-29, 00:16:04,VALID,1012,VALID,0,VALID,104,VALID,0,VALID,24.2378,VALID,294,VALID,0.171094,
2013-01-29, 00:17:04,VALID,1012,VALID,0,VALID,104,VALID,0,VALID,24.2786,VALID,295,VALID,0.0371094,
2013-01-29, 00:18:04,VALID,1011.97,VALID,0,VALID,104,VALID,0,VALID,24.2786,VALID,295,VALID,0.216797,
2013-01-29, 00:19:04,VALID,1011.99,VALID,0,VALID,104,VALID,0,VALID,24.2981,VALID,295,VALID,0.341016,
2013-01-29, 00:20:04,VALID,1011.99,VALID,0,VALID,104,VALID,0,VALID,24.2963,VALID,294,VALID,0.0304688,
2013-01-29, 00:21:04,VALID,1011.98,VALID,0,VALID,103.901,VALID,0,VALID,24.2768,VALID,296,VALID,0,
2013-01-29, 00:22:04,VALID,1011.98,VALID,0,VALID,103.832,VALID,0.112112,VALID,24.2768,VALID,295,VALID,0,
2013-01-29, 00:23:04,VALID,1011.99,VALID,0,VALID,103.825,VALID,0,VALID,24.2573,VALID,295,VALID,0,
2013-01-29, 00:24:04,VALID,1011.98,VALID,0,VALID,103.97,VALID,0,VALID,24.2786,VALID,296,VALID,0,
2013-01-29, 00:25:04,VALID,1011.99,VALID,0,VALID,103.992,VALID,0,VALID,24.2591,VALID,295,VALID,0.126172,
2013-01-29, 00:26:04,VALID,1012,VALID,0,VALID,103.825,VALID,0,VALID,24.2591,VALID,295,VALID,0.225781,
2013-01-29, 00:27:04,VALID,1011.96,VALID,0,VALID,103.748,VALID,0,VALID,24.2183,VALID,296,VALID,0.217187,
2013-01-29, 00:28:04,VALID,1011.95,VALID,0,VALID,103.848,VALID,0,VALID,24.2202,VALID,295,VALID,0.219141,
2013-01-29, 00:29:04,VALID,1011.96,VALID,0,VALID,103.878,VALID,0,VALID,24.2007,VALID,294,VALID,0.283594,
2013-01-29, 00:30:04,VALID,1011.94,VALID,0,VALID,104,VALID,0,VALID,24.2202,VALID,296,VALID,0.267188,
2013-01-29, 00:31:04,VALID,1011.95,VALID,0,VALID,104,VALID,0,VALID,24.2007,VALID,294,VALID,0.222266,
2013-01-29, 00:32:04,VALID,1011.95,VALID,0,VALID,104,VALID,0,VALID,24.2007,VALID,295,VALID,0.272656,
2013-01-29, 00:33:04,VALID,1011.94,VALID,0,VALID,104,VALID,0,VALID,24.2007,VALID,295,VALID,0.194531,
2013-01-29, 00:34:04,VALID,1011.95,VALID,0,VALID,104,VALID,0,VALID,24.2202,VALID,295,VALID,0.151953,
2013-01-29, 00:35:04,VALID,1011.96,VALID,0,VALID,104,VALID,0,VALID,24.2202,VALID,295,VALID,0.0175781,
2013-01-29, 00:36:04,VALID,1011.99,VALID,0,VALID,104,VALID,0,VALID,24.2007,VALID,295,VALID,0,
2013-01-29, 00:37:04,VALID,1011.99,VALID,0,VALID,104,VALID,0,VALID,24.2202,VALID,294,VALID,0,
2013-01-29, 00:38:04,VALID,1011.96,VALID,0,VALID,104,VALID,0,VALID,24.2202,VALID,295,VALID,0,
2013-01-29, 00:39:04,VALID,1011.98,VALID,0,VALID,104,VALID,0,VALID,24.2202,VALID,297,VALID,0.314453,
2013-01-29, 00:40:04,VALID,1011.98,VALID,0,VALID,104,VALID,0,VALID,24.2396,VALID,294,VALID,0.277734,
2013-01-29, 00:41:04,VALID,1011.96,VALID,0,VALID,103.901,VALID,0,VALID,24.2183,VALID,296,VALID,0.0445312,
2013-01-29, 00:42:04,VALID,1011.97,VALID,0,VALID,103.931,VALID,0,VALID,24.2396,VALID,294,VALID,0.48125,
2013-01-29, 00:43:04,VALID,1011.97,VALID,0,VALID,103.97,VALID,0,VALID,24.2183,VALID,302,VALID,0.0851562,
2013-01-29, 00:44:04,VALID,1011.93,VALID,0,VALID,103.947,VALID,0,VALID,24.2183,VALID,302,VALID,0.349609,
2013-01-29, 00:45:04,VALID,1011.95,VALID,0,VALID,103.809,VALID,0,VALID,24.1988,VALID,301,VALID,0.0148437,
2013-01-29, 00:46:04,VALID,1011.95,VALID,0,VALID,103.748,VALID,0,VALID,24.1988,VALID,303,VALID,0.169531,
2013-01-29, 00:47:04,VALID,1011.92,VALID,0,VALID,103.809,VALID,0.112112,VALID,24.2202,VALID,303,VALID,0.195703,
2013-01-29, 00:48:04,VALID,1011.92,VALID,0,VALID,103.848,VALID,0,VALID,24.1988,VALID,303,VALID,0.112891,
2013-01-29, 00:49:04,VALID,1011.9,VALID,0,VALID,103.825,VALID,0,VALID,24.2202,VALID,291,VALID,0.525,
2013-01-29, 00:50:04,VALID,1011.89,VALID,0,VALID,103.924,VALID,0.112112,VALID,24.2591,VALID,290,VALID,0.200781,
2013-01-29, 00:51:04,VALID,1011.85,VALID,0,VALID,103.84,VALID,0,VALID,24.2786,VALID,290,VALID,0.338281,
2013-01-29, 00:52:04,VALID,1011.86,VALID,0,VALID,103.649,VALID,0,VALID,24.2981,VALID,291,VALID,0.301562,
2013-01-29, 00:53:04,VALID,1011.87,VALID,0,VALID,103.443,VALID,0,VALID,24.2981,VALID,290,VALID,0.337109,
2013-01-29, 00:54:04,VALID,1011.85,VALID,0,VALID,103.314,VALID,0,VALID,24.3176,VALID,290,VALID,0.126563,
2013-01-29, 00:55:04,VALID,1011.87,VALID,0,VALID,103.176,VALID,0,VALID,24.2963,VALID,290,VALID,0.358203,
2013-01-29, 00:56:04,VALID,1011.84,VALID,0,VALID,103.222,VALID,0,VALID,24.2768,VALID,292,VALID,0.49375,
2013-01-29, 00:57:04,VALID,1011.82,VALID,0,VALID,103.337,VALID,0,VALID,24.3176,VALID,296,VALID,0.219922,
2013-01-29, 00:58:04,VALID,1011.79,VALID,0,VALID,103.253,VALID,0,VALID,24.2981,VALID,296,VALID,0.364844,
2013-01-29, 00:59:04,VALID,1011.82,VALID,0,VALID,103.138,VALID,0,VALID,24.2981,VALID,296,VALID,0.457812,
2013-01-29, 01:00:04,VALID,1011.77,VALID,0,VALID,103.176,VALID,0,VALID,24.2981,VALID,296,VALID,0.164844,
2013-01-29, 01:01:04,VALID,1011.79,VALID,0,VALID,103.169,VALID,0,VALID,24.2981,VALID,296,VALID,0.470703,
2013-01-29, 01:02:04,VALID,1011.79,VALID,0,VALID,103.161,VALID,0,VALID,24.3176,VALID,296,VALID,0.223047,
2013-01-29, 01:03:04,VALID,1011.78,VALID,0,VALID,103.108,VALID,0,VALID,24.3176,VALID,296,VALID,0.419531,
2013-01-29, 01:04:04,VALID,1011.77,VALID,0,VALID,102.902,VALID,0,VALID,24.3176,VALID,295,VALID,0.104687,
2013-01-29, 01:05:04,VALID,1011.77,VALID,0,VALID,102.826,VALID,0,VALID,24.2963,VALID,295,VALID,0.330859,
2013-01-29, 01:06:04,VALID,1011.77,VALID,0,VALID,102.879,VALID,0,VALID,24.3176,VALID,295,VALID,0.0175781,
2013-01-29, 01:07:04,VALID,1011.78,VALID,0,VALID,102.986,VALID,0,VALID,24.3176,VALID,315,VALID,0.96875,
2013-01-29, 01:08:04,VALID,1011.76,VALID,0,VALID,103.115,VALID,0,VALID,24.2981,VALID,318,VALID,0.807422,
2013-01-29, 01:09:04,VALID,1011.76,VALID,0,VALID,102.932,VALID,0,VALID,24.3176,VALID,337,VALID,0.683984,
2013-01-29, 01:10:04,VALID,1011.75,VALID,0,VALID,102.78,VALID,0,VALID,24.3158,VALID,333,VALID,0.682031,
2013-01-29, 01:11:04,VALID,1011.72,VALID,0,VALID,102.589,VALID,0,VALID,24.3761,VALID,323,VALID,0.514063,
2013-01-29, 01:12:04,VALID,1011.7,VALID,0,VALID,102.254,VALID,0,VALID,24.3547,VALID,323,VALID,0.428516,
2013-01-29, 01:13:04,VALID,1011.69,VALID,0,VALID,102.261,VALID,0,VALID,24.3547,VALID,323,VALID,0.223828,
2013-01-29, 01:14:04,VALID,1011.67,VALID,0,VALID,102.307,VALID,0,VALID,24.3761,VALID,323,VALID,0.317187,
2013-01-29, 01:15:04,VALID,1011.64,VALID,0,VALID,102.383,VALID,0,VALID,24.3352,VALID,323,VALID,0.458594,
2013-01-29, 01:16:04,VALID,1011.61,VALID,0,VALID,102.36,VALID,0,VALID,24.3371,VALID,323,VALID,0.445313,
2013-01-29, 01:17:04,VALID,1011.6,VALID,0,VALID,102.376,VALID,0,VALID,24.2963,VALID,323,VALID,0.2375,
2013-01-29, 01:18:04,VALID,1011.6,VALID,0,VALID,102.582,VALID,0,VALID,24.2981,VALID,323,VALID,0.046875,
2013-01-29, 01:19:04,VALID,1011.58,VALID,0,VALID,102.673,VALID,0,VALID,24.2786,VALID,323,VALID,0,
2013-01-29, 01:20:04,VALID,1011.53,VALID,0,VALID,102.635,VALID,0,VALID,24.2591,VALID,323,VALID,0.179297,
2013-01-29, 01:21:04,VALID,1011.53,VALID,0,VALID,102.772,VALID,0,VALID,24.2183,VALID,323,VALID,0,
2013-01-29, 01:22:04,VALID,1011.55,VALID,0,VALID,102.749,VALID,0,VALID,24.2007,VALID,323,VALID,0.134375,
2013-01-29, 01:23:04,VALID,1011.55,VALID,0,VALID,102.795,VALID,0,VALID,24.1812,VALID,323,VALID,0.260547,
2013-01-29, 01:24:04,VALID,1011.56,VALID,0,VALID,102.826,VALID,0.112112,VALID,24.1617,VALID,323,VALID,0,
2013-01-29, 01:25:04,VALID,1011.55,VALID,0,VALID,103.123,VALID,0,VALID,24.1227,VALID,323,VALID,0,
2013-01-29, 01:26:04,VALID,1011.51,VALID,0,VALID,103.314,VALID,0,VALID,24.0819,VALID,324,VALID,0.265234,
2013-01-29, 01:27:04,VALID,1011.5,VALID,0,VALID,103.619,VALID,0,VALID,24.1227,VALID,323,VALID,0.124219,
2013-01-29, 01:28:04,VALID,1011.49,VALID,0,VALID,103.481,VALID,0,VALID,24.1032,VALID,323,VALID,0.220313,
2013-01-29, 01:29:04,VALID,1011.48,VALID,0,VALID,103.481,VALID,0,VALID,24.0837,VALID,323,VALID,0,
2013-01-29, 01:30:04,VALID,1011.44,VALID,0,VALID,103.504,VALID,0,VALID,24.0643,VALID,323,VALID,0.0714844,
2013-01-29, 01:31:04,VALID,1011.46,VALID,0,VALID,103.603,VALID,0,VALID,24.0429,VALID,323,VALID,0.130859,
2013-01-29, 01:32:04,VALID,1011.46,VALID,0,VALID,103.741,VALID,0,VALID,24.0643,VALID,323,VALID,0.129297,
2013-01-29, 01:33:04,VALID,1011.46,VALID,0,VALID,103.924,VALID,0,VALID,24.0624,VALID,309,VALID,1.17773,
2013-01-29, 01:34:04,VALID,1011.46,VALID,0,VALID,103.863,VALID,0,VALID,24.0819,VALID,301,VALID,0.396484,
2013-01-29, 01:35:04,VALID,1011.46,VALID,0,VALID,103.649,VALID,0,VALID,24.0819,VALID,301,VALID,0.197656,
2013-01-29, 01:36:04,VALID,1011.45,VALID,0,VALID,103.451,VALID,0,VALID,24.1227,VALID,300,VALID,0.302344,
2013-01-29, 01:37:04,VALID,1011.42,VALID,0,VALID,103.413,VALID,0.112112,VALID,24.1422,VALID,301,VALID,0.626172,
2013-01-29, 01:38:04,VALID,1011.45,VALID,0,VALID,103.298,VALID,0,VALID,24.1404,VALID,301,VALID,0.375,
2013-01-29, 01:39:04,VALID,1011.41,VALID,0,VALID,103.237,VALID,0,VALID,24.1404,VALID,300,VALID,0.371875,
2013-01-29, 01:40:04,VALID,1011.42,VALID,0,VALID,103.138,VALID,0.112112,VALID,24.1209,VALID,300,VALID,0.224609,
2013-01-29, 01:41:04,VALID,1011.42,VALID,0,VALID,103.024,VALID,0.112112,VALID,24.1209,VALID,301,VALID,0.336328,
2013-01-29, 01:42:04,VALID,1011.43,VALID,0,VALID,102.948,VALID,0,VALID,24.1227,VALID,301,VALID,0.449609,
2013-01-29, 01:43:04,VALID,1011.41,VALID,0,VALID,103.192,VALID,0.112112,VALID,24.1014,VALID,301,VALID,0.385547,
2013-01-29, 01:44:04,VALID,1011.42,VALID,0,VALID,103.176,VALID,0,VALID,24.0819,VALID,301,VALID,0.323438,
2013-01-29, 01:45:04,VALID,1011.45,VALID,0,VALID,103.192,VALID,0,VALID,24.0837,VALID,300,VALID,0.5125,
2013-01-29, 01:46:04,VALID,1011.44,VALID,0,VALID,103.291,VALID,0.112112,VALID,24.0448,VALID,301,VALID,0.355078,
2013-01-29, 01:47:04,VALID,1011.45,VALID,0,VALID,103.306,VALID,0.112112,VALID,23.9845,VALID,301,VALID,0.53125,
2013-01-29, 01:48:04,VALID,1011.43,VALID,0,VALID,103.39,VALID,0.112112,VALID,23.965,VALID,301,VALID,0.285156,
2013-01-29, 01:49:04,VALID,1011.4,VALID,0,VALID,103.703,VALID,0,VALID,23.926,VALID,300,VALID,0.365625,
2013-01-29, 01:50:04,VALID,1011.42,VALID,0,VALID,103.878,VALID,0.112112,VALID,23.926,VALID,301,VALID,0.177734,
2013-01-29, 01:51:04,VALID,1011.4,VALID,0,VALID,103.855,VALID,0,VALID,23.9084,VALID,301,VALID,0.296094,
2013-01-29, 01:52:04,VALID,1011.41,VALID,0,VALID,103.87,VALID,0,VALID,23.8676,VALID,301,VALID,0.259766,
2013-01-29, 01:53:04,VALID,1011.4,VALID,0,VALID,103.893,VALID,0.112112,VALID,23.8286,VALID,301,VALID,0.210938,
2013-01-29, 01:54:04,VALID,1011.35,VALID,0,VALID,104,VALID,0,VALID,23.8091,VALID,301,VALID,0.153516,
2013-01-29, 01:55:04,VALID,1011.36,VALID,0,VALID,104,VALID,0.112112,VALID,23.7914,VALID,301,VALID,0.132031,
2013-01-29, 01:56:04,VALID,1011.36,VALID,0,VALID,104,VALID,0,VALID,23.7896,VALID,301,VALID,0.235156,
2013-01-29, 01:57:04,VALID,1011.35,VALID,0,VALID,104,VALID,0,VALID,23.7914,VALID,300,VALID,0.330469,
2013-01-29, 01:58:04,VALID,1011.32,VALID,0,VALID,104,VALID,0,VALID,23.7914,VALID,301,VALID,0.278906,
2013-01-29, 01:59:04,VALID,1011.31,VALID,0,VALID,104,VALID,0,VALID,23.7701,VALID,301,VALID,0.159766,
2013-01-29, 02:00:04,VALID,1011.33,VALID,0,VALID,104,VALID,0.112112,VALID,23.733,VALID,300,VALID,0.218359,
2013-01-29, 02:01:04,VALID,1011.3,VALID,0,VALID,104,VALID,0,VALID,23.6532,VALID,301,VALID,0.358594,
2013-01-29, 02:02:04,VALID,1011.3,VALID,0,VALID,104,VALID,0,VALID,23.6745,VALID,301,VALID,0.408984,
2013-01-29, 02:03:04,VALID,1011.3,VALID,0,VALID,104,VALID,0,VALID,23.655,VALID,300,VALID,0.255469,
2013-01-29, 02:04:04,VALID,1011.29,VALID,0,VALID,104,VALID,0,VALID,23.6356,VALID,312,VALID,0.492188,
2013-01-29, 02:05:04,VALID,1011.29,VALID,0,VALID,104,VALID,0,VALID,23.655,VALID,329,VALID,0.155469,
2013-01-29, 02:06:04,VALID,1011.28,VALID,0,VALID,104,VALID,0.112112,VALID,23.6356,VALID,328,VALID,0.18125,
2013-01-29, 02:07:04,VALID,1011.27,VALID,0,VALID,104,VALID,0,VALID,23.6161,VALID,328,VALID,0.339844,
2013-01-29, 02:08:04,VALID,1011.29,VALID,0,VALID,104,VALID,0,VALID,23.5966,VALID,328,VALID,0.269141,
2013-01-29, 02:09:04,VALID,1011.27,VALID,0,VALID,104,VALID,0,VALID,23.6161,VALID,328,VALID,0.331641,
2013-01-29, 02:10:04,VALID,1011.24,VALID,0,VALID,104,VALID,0,VALID,23.5363,VALID,328,VALID,0.382031,
2013-01-29, 02:11:04,VALID,1011.21,VALID,0,VALID,104,VALID,0,VALID,23.5169,VALID,328,VALID,0.326562,
2013-01-29, 02:12:04,VALID,1011.2,VALID,0,VALID,104,VALID,0,VALID,23.5169,VALID,328,VALID,0.478906,
2013-01-29, 02:13:04,VALID,1011.22,VALID,0,VALID,104,VALID,0.112112,VALID,23.4974,VALID,328,VALID,0.393359,
2013-01-29, 02:14:04,VALID,1011.2,VALID,0,VALID,104,VALID,0.112112,VALID,23.4992,VALID,328,VALID,0.323828,
2013-01-29, 02:15:04,VALID,1011.16,VALID,0,VALID,104,VALID,0.112112,VALID,23.4779,VALID,328,VALID,0,
2013-01-29, 02:16:04,VALID,1011.16,VALID,0,VALID,104,VALID,0.112112,VALID,23.4584,VALID,328,VALID,0,
2013-01-29, 02:17:04,VALID,1011.14,VALID,0,VALID,104,VALID,0,VALID,23.4602,VALID,328,VALID,0.0320312,
2013-01-29, 02:18:04,VALID,1011.15,VALID,0,VALID,104,VALID,0,VALID,23.4602,VALID,328,VALID,0.208203,
2013-01-29, 02:19:04,VALID,1011.12,VALID,0,VALID,104,VALID,0,VALID,23.4407,VALID,328,VALID,0.157422,
2013-01-29, 02:20:04,VALID,1011.09,VALID,0,VALID,104,VALID,0,VALID,23.4,VALID,328,VALID,0.248047,
2013-01-29, 02:21:04,VALID,1011.09,VALID,0,VALID,104,VALID,0,VALID,23.4212,VALID,328,VALID,0.183984,
2013-01-29, 02:22:04,VALID,1011.07,VALID,0,VALID,104,VALID,0,VALID,23.3805,VALID,328,VALID,0.178125,
2013-01-29, 02:23:04,VALID,1011.07,VALID,0,VALID,104,VALID,0.112112,VALID,23.3805,VALID,328,VALID,0.0726563,
2013-01-29, 02:24:04,VALID,1011.02,VALID,0,VALID,104,VALID,0.112112,VALID,23.361,VALID,328,VALID,0.0835937,
2013-01-29, 02:25:04,VALID,1010.99,VALID,0,VALID,104,VALID,0.112112,VALID,23.3823,VALID,328,VALID,0.413281,
2013-01-29, 02:26:04,VALID,1010.96,VALID,0,VALID,104,VALID,0,VALID,23.3415,VALID,328,VALID,0.674219,
2013-01-29, 02:27:04,VALID,1010.98,VALID,0,VALID,104,VALID,0.112112,VALID,23.361,VALID,328,VALID,0.196094,
2013-01-29, 02:28:04,VALID,1010.96,VALID,0,VALID,104,VALID,0.112112,VALID,23.3823,VALID,328,VALID,0.258203,
2013-01-29, 02:29:04,VALID,1010.95,VALID,0,VALID,104,VALID,0,VALID,23.3415,VALID,328,VALID,0.375,
2013-01-29, 02:30:04,VALID,1010.99,VALID,0,VALID,104,VALID,0,VALID,23.3823,VALID,328,VALID,0.464844,
2013-01-29, 02:31:04,VALID,1010.97,VALID,0,VALID,104,VALID,0,VALID,23.3628,VALID,328,VALID,0.382031,
2013-01-29, 02:32:04,VALID,1010.98,VALID,0,VALID,104,VALID,0,VALID,23.3628,VALID,328,VALID,0.163672,
2013-01-29, 02:33:04,VALID,1011,VALID,0,VALID,104,VALID,0,VALID,23.3433,VALID,328,VALID,0.174609,
2013-01-29, 02:34:04,VALID,1010.97,VALID,0,VALID,104,VALID,0,VALID,23.3238,VALID,328,VALID,0.127344,
2013-01-29, 02:35:04,VALID,1010.97,VALID,0,VALID,104,VALID,0,VALID,23.3043,VALID,328,VALID,0.323828,
2013-01-29, 02:36:04,VALID,1010.93,VALID,0,VALID,104,VALID,0,VALID,23.2831,VALID,328,VALID,0.300391,
2013-01-29, 02:37:04,VALID,1010.94,VALID,0,VALID,104,VALID,0.112112,VALID,23.2848,VALID,328,VALID,0.242578,
2013-01-29, 02:38:04,VALID,1010.93,VALID,0,VALID,104,VALID,0,VALID,23.2636,VALID,328,VALID,0.258984,
2013-01-29, 02:39:04,VALID,1010.9,VALID,0,VALID,104,VALID,0,VALID,23.2636,VALID,328,VALID,0.435937,
2013-01-29, 02:40:04,VALID,1010.89,VALID,0,VALID,104,VALID,0,VALID,23.2848,VALID,328,VALID,0.345313,
2013-01-29, 02:41:04,VALID,1010.9,VALID,0,VALID,104,VALID,0,VALID,23.2654,VALID,328,VALID,0.505078,
2013-01-29, 02:42:04,VALID,1010.89,VALID,0,VALID,104,VALID,0,VALID,23.2459,VALID,328,VALID,0.448828,
2013-01-29, 02:43:04,VALID,1010.88,VALID,0,VALID,104,VALID,0,VALID,23.2459,VALID,328,VALID,0.256641,
2013-01-29, 02:44:04,VALID,1010.88,VALID,0,VALID,104,VALID,0,VALID,23.2264,VALID,328,VALID,0.346875,
2013-01-29, 02:45:04,VALID,1010.86,VALID,0,VALID,104,VALID,0,VALID,23.2069,VALID,328,VALID,0.192578,
2013-01-29, 02:46:04,VALID,1010.87,VALID,0,VALID,104,VALID,0,VALID,23.2264,VALID,328,VALID,0.0183594,
2013-01-29, 02:47:04,VALID,1010.88,VALID,0,VALID,104,VALID,0,VALID,23.2051,VALID,328,VALID,0.157031,
2013-01-29, 02:48:04,VALID,1010.87,VALID,0,VALID,104,VALID,0,VALID,23.2069,VALID,328,VALID,0.258594,
2013-01-29, 02:49:04,VALID,1010.88,VALID,0,VALID,104,VALID,0.112112,VALID,23.1857,VALID,328,VALID,0.305859,
2013-01-29, 02:50:04,VALID,1010.88,VALID,0,VALID,104,VALID,0,VALID,23.1874,VALID,328,VALID,0.175391,
2013-01-29, 02:51:04,VALID,1010.88,VALID,0,VALID,104,VALID,0.112112,VALID,23.1467,VALID,328,VALID,0,
2013-01-29, 02:52:04,VALID,1010.86,VALID,0,VALID,104,VALID,0.112112,VALID,23.1467,VALID,328,VALID,0.0878906,
2013-01-29, 02:53:04,VALID,1010.87,VALID,0,VALID,104,VALID,0,VALID,23.1467,VALID,328,VALID,0,
2013-01-29, 02:54:04,VALID,1010.86,VALID,0,VALID,104,VALID,0,VALID,23.1272,VALID,328,VALID,0,
2013-01-29, 02:55:04,VALID,1010.88,VALID,0,VALID,104,VALID,0.112112,VALID,23.1467,VALID,328,VALID,0.0394531,
2013-01-29, 02:56:04,VALID,1010.85,VALID,0,VALID,104,VALID,0.112112,VALID,23.1467,VALID,328,VALID,0.121875,
2013-01-29, 02:57:04,VALID,1010.82,VALID,0,VALID,104,VALID,0.112112,VALID,23.1679,VALID,328,VALID,0.122656,
2013-01-29, 02:58:04,VALID,1010.84,VALID,0,VALID,104,VALID,0,VALID,23.129,VALID,328,VALID,0.0761719,
2013-01-29, 02:59:04,VALID,1010.82,VALID,0,VALID,104,VALID,0,VALID,23.129,VALID,328,VALID,0.113281,
2013-01-29, 03:00:04,VALID,1010.82,VALID,0,VALID,104,VALID,0,VALID,23.0883,VALID,328,VALID,0.161719,
2013-01-29, 03:01:04,VALID,1010.79,VALID,0,VALID,104,VALID,0,VALID,23.09,VALID,328,VALID,0.257813,
2013-01-29, 03:02:04,VALID,1010.76,VALID,0,VALID,104,VALID,0,VALID,23.1095,VALID,328,VALID,0.265625,
2013-01-29, 03:03:04,VALID,1010.76,VALID,0,VALID,104,VALID,0,VALID,23.09,VALID,328,VALID,0.328906,
2013-01-29, 03:04:04,VALID,1010.76,VALID,0,VALID,104,VALID,0.112112,VALID,23.0298,VALID,328,VALID,0.405469,
2013-01-29, 03:05:04,VALID,1010.74,VALID,0,VALID,104,VALID,0,VALID,23.0316,VALID,328,VALID,0.419531,
2013-01-29, 03:06:04,VALID,1010.75,VALID,0,VALID,104,VALID,0,VALID,23.0121,VALID,328,VALID,0.323828,
2013-01-29, 03:07:04,VALID,1010.76,VALID,0,VALID,104,VALID,0,VALID,22.9926,VALID,328,VALID,0.228906,
2013-01-29, 03:08:04,VALID,1010.76,VALID,0,VALID,104,VALID,0,VALID,22.9731,VALID,328,VALID,0.233594,
2013-01-29, 03:09:04,VALID,1010.75,VALID,0,VALID,104,VALID,0,VALID,22.9731,VALID,328,VALID,0,
2013-01-29, 03:10:04,VALID,1010.75,VALID,0,VALID,104,VALID,0,VALID,22.9324,VALID,328,VALID,0.0960938,
2013-01-29, 03:11:04,VALID,1010.7,VALID,0,VALID,104,VALID,0,VALID,22.9342,VALID,328,VALID,0,
2013-01-29, 03:12:04,VALID,1010.7,VALID,0,VALID,104,VALID,0,VALID,22.9129,VALID,328,VALID,0,
2013-01-29, 03:13:04,VALID,1010.69,VALID,0,VALID,104,VALID,0,VALID,22.9147,VALID,328,VALID,0,
2013-01-29, 03:14:04,VALID,1010.71,VALID,0,VALID,104,VALID,0,VALID,22.8952,VALID,328,VALID,0,
2013-01-29, 03:15:04,VALID,1010.68,VALID,0,VALID,104,VALID,0,VALID,22.874,VALID,328,VALID,0.162109,
2013-01-29, 03:16:04,VALID,1010.7,VALID,0,VALID,104,VALID,0,VALID,22.8757,VALID,328,VALID,0.0410156,
2013-01-29, 03:17:04,VALID,1010.69,VALID,0,VALID,104,VALID,0,VALID,22.8562,VALID,328,VALID,0.0175781,
2013-01-29, 03:18:04,VALID,1010.7,VALID,0,VALID,104,VALID,0,VALID,22.835,VALID,328,VALID,0.158203,
2013-01-29, 03:19:04,VALID,1010.67,VALID,0,VALID,104,VALID,0,VALID,22.8155,VALID,328,VALID,0.126563,
2013-01-29, 03:20:04,VALID,1010.68,VALID,0,VALID,104,VALID,0.112112,VALID,22.7978,VALID,328,VALID,0.0628906,
2013-01-29, 03:21:04,VALID,1010.7,VALID,0,VALID,104,VALID,0,VALID,22.7571,VALID,328,VALID,0,
2013-01-29, 03:22:04,VALID,1010.68,VALID,0,VALID,104,VALID,0.112112,VALID,22.7571,VALID,328,VALID,0.228906,
2013-01-29, 03:23:04,VALID,1010.66,VALID,0,VALID,104,VALID,0,VALID,22.7783,VALID,328,VALID,0.105859,
2013-01-29, 03:24:04,VALID,1010.64,VALID,0,VALID,104,VALID,0,VALID,22.7588,VALID,328,VALID,0,
2013-01-29, 03:25:04,VALID,1010.64,VALID,0,VALID,104,VALID,0,VALID,22.7588,VALID,328,VALID,0,
2013-01-29, 03:26:04,VALID,1010.6,VALID,0,VALID,104,VALID,0,VALID,22.7394,VALID,328,VALID,0,
2013-01-29, 03:27:04,VALID,1010.61,VALID,0,VALID,104,VALID,0,VALID,22.7394,VALID,328,VALID,0,
2013-01-29, 03:28:04,VALID,1010.6,VALID,0,VALID,104,VALID,0.112112,VALID,22.7182,VALID,328,VALID,0.203906,
2013-01-29, 03:29:04,VALID,1010.57,VALID,0,VALID,104,VALID,0,VALID,22.7182,VALID,328,VALID,0.139844,
2013-01-29, 03:30:04,VALID,1010.55,VALID,0,VALID,104,VALID,0,VALID,22.7199,VALID,328,VALID,0.0457031,
2013-01-29, 03:31:04,VALID,1010.52,VALID,0,VALID,104,VALID,0.112112,VALID,22.7182,VALID,328,VALID,0,
2013-01-29, 03:32:04,VALID,1010.51,VALID,0,VALID,104,VALID,0.112112,VALID,22.7199,VALID,328,VALID,0,
2013-01-29, 03:33:04,VALID,1010.5,VALID,0,VALID,104,VALID,0,VALID,22.7199,VALID,328,VALID,0,
2013-01-29, 03:34:04,VALID,1010.52,VALID,0,VALID,104,VALID,0.112112,VALID,22.7199,VALID,328,VALID,0,
2013-01-29, 03:35:04,VALID,1010.48,VALID,0,VALID,104,VALID,0,VALID,22.6792,VALID,328,VALID,0,
2013-01-29, 03:36:04,VALID,1010.48,VALID,0,VALID,104,VALID,0,VALID,22.7199,VALID,328,VALID,0.136328,
2013-01-29, 03:37:04,VALID,1010.44,VALID,0,VALID,104,VALID,0.112112,VALID,22.7394,VALID,328,VALID,0.0605469,
2013-01-29, 03:38:04,VALID,1010.44,VALID,0,VALID,104,VALID,0.112112,VALID,22.7182,VALID,328,VALID,0.0914062,
2013-01-29, 03:39:04,VALID,1010.45,VALID,0,VALID,104,VALID,0.112112,VALID,22.7394,VALID,328,VALID,0,
2013-01-29, 03:40:04,VALID,1010.45,VALID,0,VALID,104,VALID,0.112112,VALID,22.7004,VALID,328,VALID,0,
2013-01-29, 03:41:04,VALID,1010.49,VALID,0,VALID,104,VALID,0.112112,VALID,22.6597,VALID,328,VALID,0,
2013-01-29, 03:42:04,VALID,1010.49,VALID,0,VALID,104,VALID,0,VALID,22.6597,VALID,328,VALID,0,
2013-01-29, 03:43:04,VALID,1010.55,VALID,0,VALID,104,VALID,0,VALID,22.7004,VALID,328,VALID,0,
2013-01-29, 03:44:04,VALID,1010.55,VALID,0,VALID,104,VALID,0.112112,VALID,22.6792,VALID,328,VALID,0,
2013-01-29, 03:45:04,VALID,1010.56,VALID,0,VALID,104,VALID,0,VALID,22.6809,VALID,328,VALID,0,
2013-01-29, 03:46:04,VALID,1010.6,VALID,0,VALID,104,VALID,0,VALID,22.6614,VALID,328,VALID,0,
2013-01-29, 03:47:04,VALID,1010.57,VALID,0,VALID,104,VALID,0,VALID,22.6614,VALID,328,VALID,0,
2013-01-29, 03:48:04,VALID,1010.57,VALID,0,VALID,104,VALID,0.112112,VALID,22.6614,VALID,328,VALID,0,
2013-01-29, 03:49:04,VALID,1010.58,VALID,0,VALID,104,VALID,0,VALID,22.6614,VALID,328,VALID,0,